Location: Brantley
(31.5822°N, 86.2569°W)
Time: 03:49:03
(UTC+00:00)

Courier 1B Rocket - Pass Details

Date: 22 February 2026
Orbit: 920 x 1201 km, 28.2° (Epoch: 7 March)

Event Time Altitude Azimuth Distance (km) Brightness Sun altitude
Rises 20:53:12 0° 216° (SW) 3,688 9.1 31.1°
Reaches altitude 10° 20:56:35 10° 201° (SSW) 2,695 8.3 30.5°
Maximum altitude 21:01:15 21° 154° (SSE) 1,973 6.9 29.7°
Drops below altitude 10° 21:05:48 10° 108° (ESE) 2,616 7.0 28.9°
Sets 21:09:00 0° 92° (E) 3,548 7.5 28.4°
